[Iaude] MPEC F125: 2022 FT3 [a=2.07,e=0.53,i=8.5,H=26.2]

mpec at marsden.cfa.harvard.edu mpec at marsden.cfa.harvard.edu
Tue Mar 29 20:06:44 EDT 2022


M.P.E.C. 2022-F125                               Issued 2022 March 30, 00:05 UT

     The Minor Planet Electronic Circulars contain information on unusual
         minor planets and routine data on comets.  They are published
    on behalf of Division F of the International Astronomical Union by the
          Minor Planet Center, Smithsonian Astrophysical Observatory,
                          Cambridge, MA 02138, U.S.A.

             Prepared using the Tamkin Foundation Computer Network

                              MPC at CFA.HARVARD.EDU
            URL https://www.minorplanetcenter.net/    ISSN 1523-6714

                                    2022 FT3                                    


Observations:
     K22F03T* C2022 03 27.31505612 25 59.81 -05 09 07.5          21.91GVEF125V00
     K22F03T  C2022 03 27.32804312 26 03.77 -05 08 24.6          22.16GVEF125V00
     K22F03T  C2022 03 27.33452312 26 05.77 -05 08 02.9          21.93GVEF125V00
     K22F03T mC2022 03 27.40554312 26 27.75 -05 04 05.2          21.37GVEF125V00
     K22F03T mC2022 03 27.40642912 26 28.02 -05 04 02.1          22.00GVEF125V00
     K22F03T mC2022 03 27.40731512 26 28.30 -05 03 59.3          21.67GVEF125V00
     K22F03T mC2022 03 27.40820312 26 28.58 -05 03 56.2          21.62GVEF125V00
     K22F03T 1C2022 03 27.97220 12 29 48.25 -04 31 42.8          21.5 VXEF125033
     K22F03T 1C2022 03 27.97469 12 29 49.09 -04 31 33.9          20.9 VXEF125033
     K22F03T 1C2022 03 27.97717 12 29 49.94 -04 31 24.9          21.1 VXEF125033
     K22F03T 1C2022 03 27.97966 12 29 50.77 -04 31 16.0          21.4 VXEF125033
     K22F03T  C2022 03 28.30240812 31 49.56 -04 11 18.2          21.4 GVEF125H01
     K22F03T  C2022 03 28.30621212 31 50.88 -04 11 04.1          21.1 GVEF125H01
     K22F03T  C2022 03 28.31585112 31 54.19 -04 10 28.3          21.3 GVEF125H01
     K22F03T  C2022 03 28.32691512 31 58.01 -04 09 46.7          21.2 GVEF125H01
     K22F03T |C2022 03 29.15676 12 37 26.93 -03 13 42.9          21.3 GVEF125807
     K22F03T |C2022 03 29.16462 12 37 29.95 -03 13 10.4          21.5 GVEF125807
     K22F03T |C2022 03 29.17247 12 37 32.96 -03 12 37.8          21.2 GVEF125807

Observer details:
033 Karl Schwarzschild Observatory, Tautenburg.  Observers S. Melnikov, C.
    Hoegner, U. Laux, F. Ludwig, B. Stecklum.  Measurer B. Stecklum.  1.34-m
    f/3 Schmidt + CCD.
807 Cerro Tololo Observatory, La Serena.  Observers T. Linder, R. Holmes, L.
    Horn.  1.00-m f/10.0 astrograph + CCD.
H01 Magdalena Ridge Observatory, Socorro.  Observers W. H. Ryan, E. V. Ryan.
    Measurer W. H. Ryan.  2.4-m f/8.9 Ritchey-Chretien + CCD.
V00 Kitt Peak-Bok.  Observers K. W. Wierzchos, C. Lejoly.  Measurers M. J.
    Brucker, E. J. Christensen, C. E. Woodward, G. A. Farneth, J. B. Fazekas,
    D. C. Fuls, A. R. Gibbs, A. D. Grauer, H. Groeller, R. A. Kowalski, S. M.
    Larson, G. J. Leonard, R. S. McMillan, D. Rankin, R. L. Seaman, A.
    Serrano, F. C. Shelly, K. W. Wierzchos.  2.25-m reflector + CCD.

Orbital elements:
2022 FT3                                                 Earth MOID = 0.0469 AU
Epoch 2022 Jan. 21.0 TT = JDT 2459600.5                 Veres                   
M 324.44847              (2000.0)            P               Q                  
n   0.33047468     Peri.   47.87934     -0.56414563     +0.82542795             
a   2.0719404      Node   187.85498     -0.79445767     -0.54932006             
e   0.5311936      Incl.    8.50366     -0.22489269     -0.13006217             
P   2.98           H   26.23          G   0.15           U   8                  
Residuals in seconds of arc
220327 V00  0.1+  0.1+    220327 V00  0.0   0.1+    220328 H01  0.0   0.1+
220327 V00  0.1-  0.2-    220327 033  0.1-  0.0     220328 H01  0.0   0.1-
220327 V00  0.1+  0.0     220327 033  0.1-  0.0     220328 H01  0.0   0.0
220327 V00  0.0   0.0     220327 033  0.1+  0.1+    220329 807  0.3-  0.0
220327 V00  0.1-  0.1+    220327 033  0.1-  0.0     220329 807  0.0   0.1-
220327 V00  0.1-  0.1-    220328 H01  0.1-  0.2+    220329 807  0.3+  0.0

Ephemeris:
2022 FT3                 a,e,i = 2.07, 0.53, 9                   q = 0.9713
Date    TT    R. A. (2000) Decl.     Delta      r    Elong.  Phase     V
2022 02 28    11 27 58.4 -12 33 05   0.3127  1.2832   156.4    18.0    25.2
...
2022 03 15    11 45 57.9 -11 14 02   0.1904  1.1801   166.3    11.5    23.7
...
2022 03 23    12 06 36.2 -08 15 34   0.1343  1.1298   172.5     6.6    22.6
...
2022 03 29    12 36 20.9 -03 25 11   0.09687 1.0951   178.2     1.6    21.6
2022 03 30    12 43 31.1 -02 13 06   0.09116 1.0896   177.0     2.7    21.5
2022 03 31    12 51 36.2 -00 51 27   0.08564 1.0842   175.1     4.5    21.5
...
2022 04 06    14 09 46.2 +11 53 26   0.05866 1.0538   154.6    24.0    21.3
...
2022 04 14    17 43 49.8 +32 15 55   0.05514 1.0196   106.3    70.7    22.5
...
2022 04 29    21 08 57.2 +28 57 53   0.1241  0.9788    73.4    99.6    25.3

M. P. C. Staff               (C) Copyright 2022 MPC           M.P.E.C. 2022-F125




More information about the Iaude mailing list